| time (UTC) | temp C | wind direction | speed KPH | gust KPH | rain 1hr cm | rain 24hr cm | rain mn cm | humidity % | barometer mb |
| 20260507114559 | 11 | 0 | 0.0 | 4.8 | 0.00 | 0.00 | 0.00 | 76 | 1020.4 |
| 20260507113044 | 11 | 335 | 0.0 | 11.3 | 0.00 | 0.00 | 0.00 | 77 | 1020.4 |
| 20260507111542 | 11 | 0 | 0.0 | 6.4 | 0.00 | 0.00 | 0.00 | 77 | 1020.5 |
| 20260507110044 | 11 | 0 | 0.0 | 6.4 | 0.00 | 0.00 | 0.00 | 77 | 1020.5 |
| 20260507104540 | 11 | 350 | 0.0 | 4.8 | 0.00 | 0.00 | 0.00 | 77 | 1020.7 |
| 20260507103049 | 11 | 0 | 0.0 | 4.8 | 0.00 | 0.00 | 0.00 | 78 | 1020.8 |
| 20260507101546 | 11 | 5 | 0.0 | 6.4 | 0.00 | 0.00 | 0.00 | 77 | 1020.8 |
| 20260507100044 | 11 | 0 | 0.0 | 1.6 | 0.00 | 0.00 | 0.00 | 78 | 1020.8 |
| 20260507094557 | 11 | 0 | 0.0 | 4.8 | 0.00 | 0.00 | 0.00 | 77 | 1020.9 |
| 20260507093049 | 11 | 298 | 0.0 | 6.4 | 0.00 | 0.00 | 0.00 | 77 | 1021.1 |
| 20260507091546 | 11 | 242 | 0.0 | 3.2 | 0.00 | 0.00 | 0.00 | 77 | 1021.2 |
| 20260507090044 | 11 | 0 | 0.0 | 3.2 | 0.00 | 0.00 | 0.00 | 77 | 1021.3 |
| 20260507084548 | 11 | 0 | 0.0 | 6.4 | 0.00 | 0.00 | 0.00 | 78 | 1021.2 |
| 20260507083041 | 11 | 0 | 0.0 | 4.8 | 0.00 | 0.00 | 0.00 | 79 | 1021.3 |
| 20260507081542 | 12 | 0 | 0.0 | 6.4 | 0.00 | 0.00 | 0.00 | 79 | 1021.3 |
| 20260507080044 | 12 | 0 | 0.0 | 1.6 | 0.00 | 0.00 | 0.00 | 79 | 1021.4 |
| 20260507074548 | 12 | 0 | 0.0 | 4.8 | 0.00 | 0.00 | 0.00 | 78 | 1021.3 |
| 20260507073103 | 12 | 281 | 0.0 | 3.2 | 0.00 | 0.00 | 0.00 | 78 | 1021.1 |
| 20260507071542 | 12 | 0 | 0.0 | 3.2 | 0.00 | 0.00 | 0.00 | 79 | 1021.1 |
| 20260507070056 | 12 | 290 | 0.0 | 1.6 | 0.00 | 0.00 | 0.00 | 79 | 1021.0 |
| 20260507064553 | 12 | 0 | 0.0 | 4.8 | 0.00 | 0.00 | 0.00 | 78 | 1021.1 |
| 20260507063048 | 12 | 11 | 0.0 | 4.8 | 0.00 | 0.00 | 0.00 | 78 | 1021.0 |
| 20260507061545 | 12 | 0 | 1.6 | 11.3 | 0.00 | 0.00 | 0.00 | 78 | 1021.1 |
| 20260507060055 | 12 | 352 | 1.6 | 11.3 | 0.00 | 0.00 | 0.00 | 78 | 1021.0 |
| 20260507054550 | 12 | 294 | 0.0 | 8.0 | 0.00 | 0.00 | 0.00 | 77 | 1021.0 |
| 20260507053048 | 12 | 0 | 1.6 | 8.0 | 0.00 | 0.00 | 0.00 | 77 | 1021.0 |
| 20260507051540 | 13 | 360 | 1.6 | 11.3 | 0.00 | 0.00 | 0.00 | 77 | 1020.9 |
| 20260507050050 | 13 | 0 | 0.0 | 8.0 | 0.00 | 0.00 | 0.00 | 77 | 1020.9 |
| 20260507044559 | 13 | 0 | 3.2 | 12.9 | 0.00 | 0.00 | 0.00 | 76 | 1021.0 |
| 20260507043042 | 13 | 0 | 1.6 | 14.5 | 0.00 | 0.00 | 0.00 | 76 | 1020.8 |
| 20260507041545 | 13 | 300 | 1.6 | 8.0 | 0.00 | 0.00 | 0.00 | 75 | 1020.7 |
| 20260507040046 | 14 | 0 | 0.0 | 6.4 | 0.00 | 0.00 | 0.00 | 75 | 1020.4 |
| 20260507034545 | 14 | 291 | 1.6 | 9.7 | 0.00 | 0.00 | 0.00 | 75 | 1020.2 |
| 20260507033058 | 14 | 311 | 1.6 | 14.5 | 0.00 | 0.00 | 0.00 | 76 | 1020.1 |
| 20260507031558 | 15 | 14 | 0.0 | 12.9 | 0.00 | 0.00 | 0.00 | 75 | 1019.9 |
| 20260507030101 | 15 | 0 | 0.0 | 8.0 | 0.00 | 0.00 | 0.00 | 74 | 1019.8 |
| 20260507024601 | 16 | 332 | 1.6 | 14.5 | 0.00 | 0.00 | 0.00 | 73 | 1019.6 |
| 20260507023043 | 16 | 0 | 1.6 | 12.9 | 0.00 | 0.00 | 0.00 | 72 | 1019.5 |
| 20260507021550 | 16 | 317 | 3.2 | 16.1 | 0.00 | 0.00 | 0.00 | 70 | 1019.6 |
| 20260507020054 | 17 | 5 | 3.2 | 17.7 | 0.00 | 0.00 | 0.00 | 70 | 1019.6 |
| 20260507014549 | 17 | 344 | 3.2 | 12.9 | 0.00 | 0.00 | 0.00 | 70 | 1019.6 |
| 20260507013040 | 17 | 330 | 3.2 | 9.7 | 0.00 | 0.00 | 0.00 | 69 | 1019.6 |
| 20260507011547 | 18 | 5 | 3.2 | 12.9 | 0.00 | 0.00 | 0.00 | 68 | 1019.5 |
| 20260507010045 | 18 | 318 | 1.6 | 12.9 | 0.00 | 0.00 | 0.00 | 69 | 1019.5 |
| 20260507004552 | 18 | 355 | 1.6 | 11.3 | 0.00 | 0.00 | 0.00 | 68 | 1019.5 |
| 20260507003050 | 19 | 30 | 1.6 | 12.9 | 0.00 | 0.00 | 0.00 | 65 | 1019.4 |
| 20260507001551 | 19 | 259 | 3.2 | 14.5 | 0.00 | 0.00 | 0.00 | 65 | 1019.4 |
| 20260507000044 | 19 | 232 | 1.6 | 12.9 | 0.00 | 0.00 | 0.00 | 64 | 1019.4 |
| 20260506234552 | 20 | 0 | 3.2 | 11.3 | 0.00 | 0.00 | 0.00 | 63 | 1019.4 |
| 20260506233052 | 19 | 221 | 3.2 | 12.9 | 0.00 | 0.00 | 0.00 | 63 | 1019.4 |
| 20260506231553 | 20 | 251 | 1.6 | 14.5 | 0.00 | 0.00 | 0.00 | 64 | 1019.4 |
| 20260506230050 | 20 | 198 | 0.0 | 4.8 | 0.00 | 0.00 | 0.00 | 63 | 1019.6 |
| 20260506224549 | 18 | 206 | 1.6 | 14.5 | 0.00 | 0.00 | 0.00 | 66 | 1019.8 |
| 20260506223050 | 18 | 235 | 3.2 | 9.7 | 0.00 | 0.00 | 0.00 | 68 | 1019.9 |
| 20260506221539 | 18 | 321 | 1.6 | 17.7 | 0.00 | 0.00 | 0.00 | 68 | 1020.1 |
| 20260506220042 | 18 | 247 | 6.4 | 16.1 | 0.00 | 0.00 | 0.00 | 68 | 1020.0 |
| 20260506214547 | 17 | 248 | 4.8 | 16.1 | 0.00 | 0.00 | 0.00 | 70 | 1020.0 |
| 20260506213043 | 18 | 187 | 3.2 | 12.9 | 0.00 | 0.00 | 0.00 | 72 | 1020.2 |
| 20260506211541 | 17 | 110 | 3.2 | 12.9 | 0.00 | 0.00 | 0.00 | 72 | 1020.4 |
| 20260506210044 | 17 | 163 | 6.4 | 14.5 | 0.00 | 0.00 | 0.00 | 73 | 1020.5 |
| 20260506204541 | 16 | 180 | 3.2 | 11.3 | 0.00 | 0.00 | 0.00 | 75 | 1020.5 |
| 20260506203044 | 16 | 132 | 4.8 | 14.5 | 0.00 | 0.00 | 0.00 | 74 | 1020.4 |
| 20260506201542 | 16 | 182 | 1.6 | 9.7 | 0.00 | 0.00 | 0.00 | 76 | 1020.5 |
| 20260506200042 | 16 | 232 | 4.8 | 9.7 | 0.00 | 0.00 | 0.00 | 77 | 1020.8 |
| 20260506194549 | 16 | 208 | 0.0 | 12.9 | 0.00 | 0.00 | 0.00 | 77 | 1020.8 |
| 20260506193047 | 16 | 0 | 1.6 | 12.9 | 0.00 | 0.00 | 0.00 | 77 | 1020.8 |
| 20260506191545 | 16 | 0 | 1.6 | 6.4 | 0.00 | 0.00 | 0.00 | 77 | 1020.7 |
| 20260506190043 | 15 | 243 | 1.6 | 4.8 | 0.00 | 0.00 | 0.00 | 76 | 1020.7 |
| 20260506184552 | 15 | 0 | 3.2 | 11.3 | 0.00 | 0.00 | 0.00 | 81 | 1020.7 |
| 20260506183050 | 15 | 207 | 3.2 | 9.7 | 0.00 | 0.00 | 0.00 | 79 | 1020.8 |
| 20260506181549 | 14 | 221 | 3.2 | 9.7 | 0.00 | 0.00 | 0.00 | 82 | 1020.8 |
| 20260506180051 | 14 | 0 | 4.8 | 9.7 | 0.00 | 0.00 | 0.00 | 83 | 1020.8 |
| 20260506174548 | 13 | 195 | 4.8 | 11.3 | 0.00 | 0.00 | 0.00 | 84 | 1020.7 |
| 20260506173121 | 13 | 204 | 4.8 | 8.0 | 0.00 | 0.00 | 0.00 | 84 | 1020.5 |
| 20260506171548 | 13 | 259 | 0.0 | 6.4 | 0.00 | 0.00 | 0.00 | 84 | 1020.5 |
| 20260506170050 | 13 | 0 | 0.0 | 8.0 | 0.00 | 0.00 | 0.00 | 83 | 1020.5 |
| 20260506164555 | 13 | 165 | 1.6 | 4.8 | 0.00 | 0.00 | 0.00 | 83 | 1020.4 |
| 20260506163105 | 13 | 227 | 1.6 | 6.4 | 0.00 | 0.00 | 0.00 | 83 | 1020.3 |
| 20260506161626 | 13 | 0 | 0.0 | 9.7 | 0.00 | 0.00 | 0.00 | 83 | 1020.3 |
| 20260506160051 | 13 | 218 | 1.6 | 9.7 | 0.00 | 0.00 | 0.00 | 83 | 1020.1 |
| 20260506154553 | 13 | 68 | 3.2 | 6.4 | 0.00 | 0.00 | 0.00 | 84 | 1019.6 |
| 20260506153047 | 13 | 0 | 1.6 | 6.4 | 0.00 | 0.00 | 0.00 | 84 | 1020.5 |
| 20260506151542 | 13 | 355 | 0.0 | 4.8 | 0.00 | 0.00 | 0.00 | 85 | 1020.4 |
| 20260506150049 | 13 | 347 | 3.2 | 12.9 | 0.00 | 0.00 | 0.00 | 84 | 1020.4 |
| 20260506144543 | 13 | 0 | 0.0 | 1.6 | 0.00 | 0.00 | 0.00 | 85 | 1020.3 |
| 20260506143047 | 13 | 0 | 0.0 | 1.6 | 0.00 | 0.00 | 0.00 | 85 | 1019.7 |
| 20260506141550 | 13 | 84 | 0.0 | 3.2 | 0.00 | 0.00 | 0.00 | 85 | 1019.5 |
| 20260506140051 | 13 | 0 | 0.0 | 3.2 | 0.00 | 0.00 | 0.00 | 85 | 1019.5 |
| 20260506134544 | 13 | 0 | 0.0 | 3.2 | 0.00 | 0.00 | 0.00 | 85 | 1019.4 |
| 20260506133047 | 12 | 0 | 0.0 | 3.2 | 0.00 | 0.00 | 0.00 | 85 | 1019.3 |
| 20260506131550 | 12 | 84 | 1.6 | 4.8 | 0.00 | 0.00 | 0.00 | 85 | 1019.1 |
| 20260506130108 | 12 | 0 | 0.0 | 3.2 | 0.00 | 0.00 | 0.00 | 84 | 1019.1 |
| 20260506124557 | 13 | 5 | 1.6 | 4.8 | 0.00 | 0.00 | 0.00 | 84 | 1018.9 |
| 20260506123051 | 13 | 9 | 0.0 | 4.8 | 0.00 | 0.00 | 0.00 | 84 | 1019.0 |
| 20260506121548 | 13 | 0 | 1.6 | 6.4 | 0.00 | 0.00 | 0.00 | 84 | 1019.0 |
| 20260506120101 | 13 | 19 | 1.6 | 8.0 | 0.00 | 0.00 | 0.00 | 83 | 1018.8 |